Regional Weather Roundup
Issued by NWS

Home | Current Version | Previous Version | Graphics & Text | Print | Product List | Glossary On
Versions: 1 2 3 4 5 6 7 8 9 10 11 12 13 14 15 16 17 18 19 20 21 22 23 24 25 26 27
000
ASUS45 KCYS 251710
RWRWY

WYOMING REGIONAL WEATHER ROUNDUP
NATIONAL WEATHER SERVICE CHEYENNE WY
1100 AM MDT SAT OCT 25 2014

NOTE:  "FAIR" INDICATES FEW OR NO CLOUDS BELOW 12,000 FEET
WITH NO SIGNIFICANT WEATHER AND/OR OBSTRUCTIONS TO VISIBILITY.

WYZ001-251800-
YELLOWSTONE NATIONAL PARK

CITY           SKY/WX    TMP DP  RH WIND       PRES   REMARKS
LK YELLOWSTONE   N/A     51  29  42 CALM      30.20
W YELLOWSTONE  NOT AVBL

$$
WYZ002>013-054>058-071-098>099-251800-
NORTHERN WYOMING

CITY           SKY/WX    TMP DP  RH WIND       PRES   REMARKS
JACKSON        SUNNY     45  27  49 SE3       30.18F
CODY           SUNNY     63  28  27 S8        30.05
GREYBULL       SUNNY     50  31  48 CALM      30.05F
WORLAND        SUNNY     52  34  50 W3        30.05F
SHERIDAN       SUNNY     50  33  52 CALM      30.02F
BUFFALO        SUNNY     65  30  27 SE9       30.07F
GILLETTE       SUNNY     58  33  39 S23       30.09F
HULETT         FAIR      57  34  41 CALM      30.11
NEWCASTLE      FAIR      55  32  41 S10       30.16

$$
WYZ014>020-022>026-101>103-251800-
CENTRAL WYOMING

CITY           SKY/WX    TMP DP  RH WIND       PRES   REMARKS
BIG PINEY      SUNNY     46  23  40 CALM      30.25F
PINEDALE       SUNNY     52  28  40 E6        30.26
DUBOIS         FAIR      54  21  28 SE8       30.18F
LANDER         SUNNY     55  23  28 NW5       30.14F
RIVERTON       SUNNY     53  27  36 E3        30.15F
CASPER         SUNNY     68  27  21 SW17      30.15S
DOUGLAS        SUNNY     62  29  28 S6        30.15F

$$
WYZ021-027>030-104>119-251800-
SOUTHERN WYOMING

CITY           SKY/WX    TMP DP  RH WIND       PRES   REMARKS
EVANSTON       SUNNY     60  26  27 SW9       30.22F
KEMMERER       SUNNY     55  27  33 CALM      30.25F
FORT BRIDGER   FAIR      53  24  33 CALM      30.27F
ROCK SPRINGS   SUNNY     57  32  38 N3        30.24F
RAWLINS        SUNNY     66  27  23 S18       30.25F
SARATOGA       FAIR      64  27  24 S14G20    30.28F
LARAMIE        SUNNY     65  22  19 SW16      30.29F
CHEYENNE       SUNNY     72  22  15 SW16      30.25F
TORRINGTON     SUNNY     56  36  47 SE5       30.16F
PINE BLUFFS    FAIR      70  36  28 CALM      30.21F

$$



USA.gov is the U.S. government's official web portal to all federal, state and local government web resources and services.